Time,TemperatureF,DewpointF,PressureIn,WindDirection,WindDirectionDegrees,WindSpeedMPH,WindSpeedGustMPH,Humidity,HourlyPrecipIn,Conditions,Clouds,dailyrainin,SoftwareType,DateUTC
2013-04-22 00:01:00,71.6,70.7,30.01,SSE,155,0.0,0.0,97,0.00,,,0.00,Wunderground v.1.15,2013-04-22 04:01:00,
2013-04-22 00:02:00,71.6,70.7,30.01,SSE,155,0.0,0.0,97,0.00,,,0.00,Wunderground v.1.15,2013-04-22 04:02:00,
2013-04-22 00:06:00,71.6,70.7,30.01,South,189,0.0,0.0,97,0.00,,,0.00,Wunderground v.1.15,2013-04-22 04:06:00,
2013-04-22 00:08:00,71.6,70.7,30.01,South,189,0.0,0.0,97,0.00,,,0.00,Wunderground v.1.15,2013-04-22 04:08:00,
2013-04-22 00:11:00,71.6,70.7,30.01,South,188,0.0,0.0,97,0.00,,,0.00,Wunderground v.1.15,2013-04-22 04:11:00,
2013-04-22 00:17:00,71.6,70.7,30.01,South,189,0.0,0.0,97,0.00,,,0.00,Wunderground v.1.15,2013-04-22 04:17:00,
2013-04-22 00:23:00,71.5,70.6,30.01,South,188,0.0,0.0,97,0.00,,,0.00,Wunderground v.1.15,2013-04-22 04:23:00,
2013-04-22 00:28:00,71.3,70.4,30.01,South,189,0.0,0.0,97,0.00,,,0.00,Wunderground v.1.15,2013-04-22 04:28:00,
2013-04-22 00:34:00,71.3,70.4,30.01,South,189,0.0,0.0,97,0.00,,,0.00,Wunderground v.1.15,2013-04-22 04:34:00,
2013-04-22 00:40:00,71.1,70.2,30.01,South,189,0.0,0.0,97,0.00,,,0.00,Wunderground v.1.15,2013-04-22 04:40:00,
2013-04-22 00:45:00,71.1,70.2,30.01,South,189,0.0,0.0,97,0.00,,,0.00,Wunderground v.1.15,2013-04-22 04:45:00,
2013-04-22 00:51:00,70.9,70.0,30.01,South,189,0.0,0.0,97,0.00,,,0.00,Wunderground v.1.15,2013-04-22 04:51:00,
2013-04-22 00:57:00,70.9,70.0,30.01,South,189,0.0,0.0,97,0.00,,,0.00,Wunderground v.1.15,2013-04-22 04:57:00,
2013-04-22 01:02:00,70.9,70.0,30.01,South,189,0.0,0.0,97,0.00,,,0.00,Wunderground v.1.15,2013-04-22 05:02:00,
2013-04-22 01:08:00,70.8,69.9,30.01,South,189,0.0,0.0,97,0.00,,,0.00,Wunderground v.1.15,2013-04-22 05:08:00,
2013-04-22 01:14:00,70.6,69.7,30.00,NW,316,0.0,0.0,97,0.00,,,0.00,Wunderground v.1.15,2013-04-22 05:14:00,
2013-04-22 01:20:00,70.6,69.7,30.00,NW,316,0.0,0.0,97,0.00,,,0.00,Wunderground v.1.15,2013-04-22 05:20:00,
2013-04-22 01:26:00,70.6,69.7,30.00,NW,316,0.0,0.0,97,0.00,,,0.00,Wunderground v.1.15,2013-04-22 05:26:00,
2013-04-22 01:32:00,70.6,70.0,30.00,NW,316,0.0,0.0,98,0.00,,,0.00,Wunderground v.1.15,2013-04-22 05:32:00,
2013-04-22 01:38:00,70.6,70.0,30.00,NW,316,0.0,0.0,98,0.00,,,0.00,Wunderground v.1.15,2013-04-22 05:38:00,
2013-04-22 01:44:00,70.6,70.0,30.00,NW,316,0.0,0.0,98,0.00,,,0.00,Wunderground v.1.15,2013-04-22 05:44:00,
2013-04-22 01:50:00,70.6,70.0,30.00,NW,316,0.0,0.0,98,0.00,,,0.00,Wunderground v.1.15,2013-04-22 05:50:00,
2013-04-22 01:56:00,70.6,70.0,30.00,NW,316,0.0,0.0,98,0.00,,,0.00,Wunderground v.1.15,2013-04-22 05:56:00,
2013-04-22 02:01:00,70.6,70.0,30.00,NW,316,0.0,0.0,98,0.00,,,0.00,Wunderground v.1.15,2013-04-22 06:01:00,
2013-04-22 02:06:00,70.6,70.0,30.00,NW,316,0.0,0.0,98,0.00,,,0.00,Wunderground v.1.15,2013-04-22 06:06:00,
2013-04-22 02:11:00,70.6,70.0,30.00,South,181,0.0,1.0,98,0.00,,,0.00,Wunderground v.1.15,2013-04-22 06:11:00,
2013-04-22 02:16:00,70.6,70.0,30.00,South,181,0.0,1.0,98,0.00,,,0.00,Wunderground v.1.15,2013-04-22 06:16:00,
2013-04-22 02:21:00,70.6,70.0,30.00,South,181,0.0,0.0,98,0.00,,,0.01,Wunderground v.1.15,2013-04-22 06:21:00,
2013-04-22 02:26:00,70.4,69.8,30.00,South,181,0.0,0.0,98,0.00,,,0.01,Wunderground v.1.15,2013-04-22 06:26:00,
2013-04-22 02:31:00,70.4,69.8,29.98,South,181,0.0,0.0,98,0.00,,,0.01,Wunderground v.1.15,2013-04-22 06:31:00,
2013-04-22 02:36:00,70.4,69.8,29.98,South,181,0.0,0.0,98,0.00,,,0.01,Wunderground v.1.15,2013-04-22 06:36:00,
2013-04-22 02:42:00,70.4,69.8,29.98,South,181,0.0,0.0,98,0.00,,,0.01,Wunderground v.1.15,2013-04-22 06:42:00,
2013-04-22 02:47:00,70.3,69.7,29.98,South,184,0.0,0.0,98,0.00,,,0.01,Wunderground v.1.15,2013-04-22 06:47:00,
2013-04-22 02:52:00,70.3,69.7,29.98,South,184,0.0,0.0,98,0.00,,,0.01,Wunderground v.1.15,2013-04-22 06:52:00,
2013-04-22 02:58:00,70.3,69.7,29.98,SSW,195,0.0,0.0,98,0.00,,,0.01,Wunderground v.1.15,2013-04-22 06:58:00,
2013-04-22 03:03:00,70.3,69.7,29.97,SSW,195,0.0,0.0,98,0.00,,,0.01,Wunderground v.1.15,2013-04-22 07:03:00,
2013-04-22 03:08:00,70.1,69.5,29.97,West,261,1.0,3.0,98,0.00,,,0.01,Wunderground v.1.15,2013-04-22 07:08:00,
2013-04-22 03:13:00,69.9,69.3,29.97,West,268,0.0,1.0,98,0.00,,,0.01,Wunderground v.1.15,2013-04-22 07:13:00,
2013-04-22 03:18:00,69.9,69.3,29.97,West,267,0.0,1.0,98,0.00,,,0.01,Wunderground v.1.15,2013-04-22 07:18:00,
2013-04-22 03:23:00,69.8,69.2,29.97,West,268,0.0,1.0,98,0.00,,,0.01,Wunderground v.1.15,2013-04-22 07:23:00,
2013-04-22 03:28:00,69.8,69.2,29.97,West,268,0.0,1.0,98,0.00,,,0.01,Wunderground v.1.15,2013-04-22 07:28:00,
2013-04-22 03:34:00,69.8,69.2,29.97,West,268,0.0,0.0,98,0.00,,,0.01,Wunderground v.1.15,2013-04-22 07:34:00,
2013-04-22 03:39:00,69.8,69.2,29.97,West,268,0.0,0.0,98,0.00,,,0.01,Wunderground v.1.15,2013-04-22 07:39:00,
2013-04-22 03:44:00,69.8,69.2,29.96,West,267,0.0,0.0,98,0.00,,,0.01,Wunderground v.1.15,2013-04-22 07:44:00,
2013-04-22 03:49:00,69.8,69.2,29.96,West,268,0.0,1.0,98,0.00,,,0.01,Wunderground v.1.15,2013-04-22 07:49:00,
2013-04-22 03:54:00,69.8,69.2,29.96,West,268,0.0,0.0,98,0.00,,,0.01,Wunderground v.1.15,2013-04-22 07:54:00,
2013-04-22 04:00:00,69.6,69.0,29.96,West,268,1.0,1.0,98,0.00,,,0.01,Wunderground v.1.15,2013-04-22 08:00:00,
2013-04-22 04:05:00,69.6,69.0,29.96,West,268,0.0,1.0,98,0.00,,,0.01,Wunderground v.1.15,2013-04-22 08:05:00,
2013-04-22 04:10:00,69.6,69.0,29.96,West,268,0.0,0.0,98,0.00,,,0.01,Wunderground v.1.15,2013-04-22 08:10:00,
2013-04-22 04:15:00,69.6,69.0,29.96,West,268,0.0,0.0,98,0.00,,,0.01,Wunderground v.1.15,2013-04-22 08:15:00,
2013-04-22 04:21:00,69.6,69.0,29.96,West,268,0.0,0.0,98,0.00,,,0.01,Wunderground v.1.15,2013-04-22 08:21:00,
2013-04-22 04:26:00,69.6,69.0,29.96,West,268,0.0,0.0,98,0.00,,,0.01,Wunderground v.1.15,2013-04-22 08:26:00,
2013-04-22 04:31:00,69.6,69.0,29.95,West,268,0.0,0.0,98,0.00,,,0.01,Wunderground v.1.15,2013-04-22 08:31:00,
2013-04-22 04:36:00,69.6,69.0,29.95,West,268,0.0,0.0,98,0.00,,,0.01,Wunderground v.1.15,2013-04-22 08:36:00,
2013-04-22 04:41:00,69.4,68.8,29.95,West,268,0.0,0.0,98,0.00,,,0.01,Wunderground v.1.15,2013-04-22 08:41:00,
2013-04-22 04:47:00,69.4,68.8,29.95,West,268,0.0,0.0,98,0.00,,,0.01,Wunderground v.1.15,2013-04-22 08:47:00,
2013-04-22 04:52:00,69.4,69.1,29.95,West,268,0.0,0.0,99,0.00,,,0.01,Wunderground v.1.15,2013-04-22 08:52:00,
2013-04-22 04:57:00,69.4,68.8,29.95,West,268,0.0,0.0,98,0.00,,,0.01,Wunderground v.1.15,2013-04-22 08:57:00,
2013-04-22 05:03:00,69.4,69.1,29.95,West,268,0.0,0.0,99,0.00,,,0.01,Wunderground v.1.15,2013-04-22 09:03:00,
2013-04-22 05:08:00,69.4,69.1,29.95,West,268,0.0,0.0,99,0.00,,,0.01,Wunderground v.1.15,2013-04-22 09:08:00,
2013-04-22 05:13:00,69.4,69.1,29.95,West,268,0.0,0.0,99,0.00,,,0.01,Wunderground v.1.15,2013-04-22 09:13:00,
2013-04-22 05:19:00,69.4,69.1,29.95,West,268,0.0,0.0,99,0.00,,,0.01,Wunderground v.1.15,2013-04-22 09:19:00,
2013-04-22 05:24:00,69.4,69.1,29.95,West,268,0.0,0.0,99,0.00,,,0.01,Wunderground v.1.15,2013-04-22 09:24:00,
2013-04-22 05:29:00,69.4,69.1,29.95,West,268,0.0,0.0,99,0.00,,,0.01,Wunderground v.1.15,2013-04-22 09:29:00,
2013-04-22 05:34:00,69.3,69.0,29.95,West,268,0.0,0.0,99,0.00,,,0.01,Wunderground v.1.15,2013-04-22 09:34:00,
2013-04-22 05:39:00,69.3,69.0,29.95,West,268,0.0,0.0,99,0.00,,,0.01,Wunderground v.1.15,2013-04-22 09:39:00,
2013-04-22 05:44:00,69.3,69.0,29.95,West,268,0.0,1.0,99,0.00,,,0.01,Wunderground v.1.15,2013-04-22 09:44:00,
2013-04-22 05:49:00,69.3,69.0,29.95,West,268,0.0,0.0,99,0.00,,,0.01,Wunderground v.1.15,2013-04-22 09:49:00,
2013-04-22 05:54:00,69.1,68.5,29.95,West,268,0.0,0.0,98,0.00,,,0.01,Wunderground v.1.15,2013-04-22 09:54:00,
2013-04-22 06:00:00,69.1,68.8,29.95,West,268,0.0,0.0,99,0.00,,,0.01,Wunderground v.1.15,2013-04-22 10:00:00,
2013-04-22 06:05:00,69.1,68.5,29.95,West,268,0.0,0.0,98,0.00,,,0.01,Wunderground v.1.15,2013-04-22 10:05:00,
2013-04-22 06:10:00,69.1,68.8,29.95,West,268,0.0,0.0,99,0.00,,,0.01,Wunderground v.1.15,2013-04-22 10:10:00,
2013-04-22 06:15:00,69.1,68.8,29.96,West,268,0.0,0.0,99,0.00,,,0.01,Wunderground v.1.15,2013-04-22 10:15:00,
2013-04-22 06:20:00,69.1,68.8,29.96,West,268,0.0,0.0,99,0.00,,,0.01,Wunderground v.1.15,2013-04-22 10:20:00,
2013-04-22 06:25:00,68.9,68.3,29.96,West,268,0.0,0.0,98,0.00,,,0.01,Wunderground v.1.15,2013-04-22 10:25:00,
2013-04-22 06:30:00,68.9,68.3,29.97,West,268,0.0,0.0,98,0.00,,,0.01,Wunderground v.1.15,2013-04-22 10:30:00,
2013-04-22 06:35:00,68.9,68.6,29.97,West,268,0.0,0.0,99,0.00,,,0.01,Wunderground v.1.15,2013-04-22 10:35:00,
2013-04-22 06:40:00,68.8,68.2,29.97,West,268,0.0,0.0,98,0.00,,,0.01,Wunderground v.1.15,2013-04-22 10:40:00,
2013-04-22 06:46:00,68.8,68.5,29.97,West,268,0.0,0.0,99,0.00,,,0.01,Wunderground v.1.15,2013-04-22 10:46:00,
2013-04-22 06:51:00,68.8,68.5,29.97,West,268,0.0,0.0,99,0.00,,,0.01,Wunderground v.1.15,2013-04-22 10:51:00,
2013-04-22 06:56:00,68.8,68.5,29.97,West,268,0.0,0.0,99,0.00,,,0.01,Wunderground v.1.15,2013-04-22 10:56:00,
2013-04-22 07:01:00,68.8,68.5,29.96,West,268,0.0,0.0,99,0.00,,,0.01,Wunderground v.1.15,2013-04-22 11:01:00,
2013-04-22 07:06:00,68.8,68.5,29.96,West,268,0.0,0.0,99,0.00,,,0.01,Wunderground v.1.15,2013-04-22 11:06:00,
2013-04-22 07:11:00,68.8,68.5,29.96,West,268,0.0,0.0,99,0.00,,,0.01,Wunderground v.1.15,2013-04-22 11:11:00,
2013-04-22 07:16:00,68.8,68.5,29.95,West,268,0.0,0.0,99,0.00,,,0.01,Wunderground v.1.15,2013-04-22 11:16:00,
2013-04-22 07:21:00,68.8,68.5,29.95,West,267,0.0,0.0,99,0.00,,,0.01,Wunderground v.1.15,2013-04-22 11:21:00,
2013-04-22 07:26:00,68.8,68.5,29.95,West,268,0.0,0.0,99,0.00,,,0.01,Wunderground v.1.15,2013-04-22 11:26:00,
2013-04-22 07:31:00,68.8,68.5,29.96,West,268,0.0,0.0,99,0.00,,,0.01,Wunderground v.1.15,2013-04-22 11:31:00,
2013-04-22 07:36:00,68.9,68.6,29.96,West,269,0.0,2.0,99,0.00,,,0.01,Wunderground v.1.15,2013-04-22 11:36:00,
2013-04-22 07:41:00,68.9,68.6,29.96,West,271,0.0,2.0,99,0.00,,,0.01,Wunderground v.1.15,2013-04-22 11:41:00,
2013-04-22 07:46:00,69.1,68.8,29.96,West,271,0.0,2.0,99,0.00,,,0.01,Wunderground v.1.15,2013-04-22 11:46:00,
2013-04-22 07:51:00,69.1,68.8,29.96,West,271,0.0,0.0,99,0.00,,,0.01,Wunderground v.1.15,2013-04-22 11:51:00,
2013-04-22 07:56:00,69.1,68.8,29.96,West,271,0.0,0.0,99,0.00,,,0.01,Wunderground v.1.15,2013-04-22 11:56:00,
2013-04-22 08:01:00,69.3,69.0,29.96,West,271,0.0,0.0,99,0.00,,,0.01,Wunderground v.1.15,2013-04-22 12:01:00,
2013-04-22 08:06:00,69.3,69.0,29.96,West,271,0.0,0.0,99,0.00,,,0.01,Wunderground v.1.15,2013-04-22 12:06:00,
2013-04-22 08:11:00,69.3,69.0,29.96,West,271,0.0,1.0,99,0.00,,,0.01,Wunderground v.1.15,2013-04-22 12:11:00,
2013-04-22 08:17:00,69.4,69.1,29.97,West,271,0.0,1.0,99,0.00,,,0.01,Wunderground v.1.15,2013-04-22 12:17:00,
2013-04-22 08:22:00,69.6,69.3,29.97,West,271,0.0,0.0,99,0.00,,,0.01,Wunderground v.1.15,2013-04-22 12:22:00,
2013-04-22 08:27:00,69.8,69.5,29.97,West,271,0.0,0.0,99,0.00,,,0.01,Wunderground v.1.15,2013-04-22 12:27:00,
2013-04-22 08:33:00,70.1,69.8,29.97,West,271,0.0,0.0,99,0.00,,,0.01,Wunderground v.1.15,2013-04-22 12:33:00,
2013-04-22 08:38:00,70.3,70.0,29.97,West,271,0.0,0.0,99,0.00,,,0.01,Wunderground v.1.15,2013-04-22 12:38:00,
2013-04-22 08:43:00,70.4,70.1,29.97,West,271,0.0,0.0,99,0.00,,,0.01,Wunderground v.1.15,2013-04-22 12:43:00,
2013-04-22 08:48:00,70.6,70.3,29.97,West,271,0.0,1.0,99,0.00,,,0.01,Wunderground v.1.15,2013-04-22 12:48:00,
2013-04-22 08:54:00,70.8,70.5,29.97,West,271,0.0,0.0,99,0.00,,,0.01,Wunderground v.1.15,2013-04-22 12:54:00,
2013-04-22 08:59:00,70.8,70.2,29.98,West,271,0.0,2.0,98,0.00,,,0.01,Wunderground v.1.15,2013-04-22 12:59:00,
2013-04-22 09:04:00,70.9,70.3,29.98,West,271,0.0,0.0,98,0.00,,,0.01,Wunderground v.1.15,2013-04-22 13:04:00,
2013-04-22 09:09:00,71.1,70.5,29.98,West,271,0.0,0.0,98,0.00,,,0.01,Wunderground v.1.15,2013-04-22 13:09:00,
2013-04-22 09:14:00,71.3,70.7,29.97,West,271,0.0,0.0,98,0.00,,,0.01,Wunderground v.1.15,2013-04-22 13:14:00,
2013-04-22 09:19:00,71.5,70.6,29.97,West,271,0.0,0.0,97,0.00,,,0.01,Wunderground v.1.15,2013-04-22 13:19:00,
2013-04-22 09:24:00,71.5,70.6,29.97,West,271,0.0,0.0,97,0.00,,,0.01,Wunderground v.1.15,2013-04-22 13:24:00,
2013-04-22 09:29:00,71.8,70.9,29.99,West,271,0.0,0.0,97,0.00,,,0.01,Wunderground v.1.15,2013-04-22 13:29:00,
2013-04-22 09:34:00,72.0,71.1,29.99,WNW,287,0.0,4.0,97,0.00,,,0.01,Wunderground v.1.15,2013-04-22 13:34:00,
2013-04-22 09:40:00,72.0,70.8,29.99,WNW,289,0.0,0.0,96,0.00,,,0.01,Wunderground v.1.15,2013-04-22 13:40:00,
2013-04-22 09:45:00,72.1,70.9,30.00,WNW,288,0.0,3.0,96,0.00,,,0.01,Wunderground v.1.15,2013-04-22 13:45:00,
2013-04-22 09:50:00,72.1,70.6,30.00,WNW,287,0.0,0.0,95,0.00,,,0.01,Wunderground v.1.15,2013-04-22 13:50:00,
2013-04-22 09:55:00,72.1,70.3,30.00,WNW,288,0.0,0.0,94,0.00,,,0.01,Wunderground v.1.15,2013-04-22 13:55:00,
2013-04-22 10:00:00,72.3,70.2,30.01,WNW,290,3.0,4.0,93,0.00,,,0.01,Wunderground v.1.15,2013-04-22 14:00:00,
2013-04-22 10:05:00,72.5,70.4,30.01,WNW,293,0.0,4.0,93,0.00,,,0.01,Wunderground v.1.15,2013-04-22 14:05:00,
2013-04-22 10:10:00,72.7,70.2,30.01,NW,315,1.0,1.0,92,0.00,,,0.01,Wunderground v.1.15,2013-04-22 14:10:00,
2013-04-22 10:15:00,72.7,69.9,30.01,NW,320,5.0,7.0,91,0.00,,,0.01,Wunderground v.1.15,2013-04-22 14:15:00,
2013-04-22 10:21:00,72.8,70.0,30.01,NNW,335,1.0,3.0,91,0.00,,,0.01,Wunderground v.1.15,2013-04-22 14:21:00,
2013-04-22 10:26:00,73.0,69.6,30.01,NNW,333,3.0,5.0,89,0.00,,,0.01,Wunderground v.1.15,2013-04-22 14:26:00,
2013-04-22 10:31:00,73.2,69.8,30.01,NNW,343,2.0,5.0,89,0.00,,,0.01,Wunderground v.1.15,2013-04-22 14:31:00,
2013-04-22 10:36:00,73.3,69.9,30.01,NW,309,2.0,6.0,89,0.00,,,0.01,Wunderground v.1.15,2013-04-22 14:36:00,
2013-04-22 10:42:00,73.3,69.9,30.01,NNW,347,0.0,4.0,89,0.00,,,0.01,Wunderground v.1.15,2013-04-22 14:42:00,
2013-04-22 10:47:00,73.3,69.5,30.02,NW,321,3.0,7.0,88,0.00,,,0.01,Wunderground v.1.15,2013-04-22 14:47:00,
2013-04-22 10:52:00,73.2,69.4,30.02,NW,321,2.0,2.0,88,0.00,,,0.01,Wunderground v.1.15,2013-04-22 14:52:00,
2013-04-22 10:57:00,73.2,69.4,30.02,NNW,341,3.0,7.0,88,0.00,,,0.01,Wunderground v.1.15,2013-04-22 14:57:00,
2013-04-22 11:02:00,73.2,69.4,30.02,NNW,331,3.0,6.0,88,0.00,,,0.01,Wunderground v.1.15,2013-04-22 15:02:00,
2013-04-22 11:07:00,73.2,69.1,30.02,North,359,0.0,7.0,87,0.00,,,0.01,Wunderground v.1.15,2013-04-22 15:07:00,
2013-04-22 11:12:00,73.2,69.1,30.02,NNW,329,2.0,6.0,87,0.00,,,0.01,Wunderground v.1.15,2013-04-22 15:12:00,
2013-04-22 11:17:00,73.2,69.1,30.02,North,351,2.0,7.0,87,0.00,,,0.01,Wunderground v.1.15,2013-04-22 15:17:00,
2013-04-22 11:22:00,73.3,69.2,30.02,North,351,0.0,2.0,87,0.00,,,0.01,Wunderground v.1.15,2013-04-22 15:22:00,
2013-04-22 11:27:00,73.3,69.2,30.02,NNW,343,4.0,6.0,87,0.00,,,0.01,Wunderground v.1.15,2013-04-22 15:27:00,
2013-04-22 11:32:00,73.3,68.9,30.02,NW,326,2.0,5.0,86,0.00,,,0.01,Wunderground v.1.15,2013-04-22 15:32:00,
2013-04-22 11:37:00,73.5,69.1,30.02,North,349,0.0,7.0,86,0.00,,,0.01,Wunderground v.1.15,2013-04-22 15:37:00,
2013-04-22 11:42:00,73.9,69.4,30.02,WNW,297,1.0,2.0,86,0.00,,,0.01,Wunderground v.1.15,2013-04-22 15:42:00,
2013-04-22 11:48:00,74.4,69.6,30.02,NNW,347,0.0,6.0,85,0.00,,,0.01,Wunderground v.1.15,2013-04-22 15:48:00,
2013-04-22 11:53:00,74.4,68.9,30.02,NNW,341,0.0,5.0,83,0.00,,,0.01,Wunderground v.1.15,2013-04-22 15:53:00,
2013-04-22 11:58:00,74.4,68.9,30.02,North,359,0.0,6.0,83,0.00,,,0.01,Wunderground v.1.15,2013-04-22 15:58:00,
2013-04-22 12:04:00,74.2,68.7,30.02,NNW,347,2.0,7.0,83,0.00,,,0.01,Wunderground v.1.15,2013-04-22 16:04:00,
2013-04-22 12:09:00,74.6,69.8,30.02,NE,41,4.0,7.0,85,0.00,,,0.01,Wunderground v.1.15,2013-04-22 16:09:00,
2013-04-22 12:14:00,74.4,68.9,30.01,North,357,4.0,5.0,83,0.00,,,0.01,Wunderground v.1.15,2013-04-22 16:14:00,
2013-04-22 12:19:00,74.7,69.5,30.01,NNE,33,0.0,7.0,84,0.00,,,0.01,Wunderground v.1.15,2013-04-22 16:19:00,
2013-04-22 12:24:00,74.7,69.2,30.01,NNW,343,6.0,6.0,83,0.00,,,0.01,Wunderground v.1.15,2013-04-22 16:24:00,
2013-04-22 12:29:00,74.4,68.9,30.01,NNW,340,7.0,10.0,83,0.00,,,0.01,Wunderground v.1.15,2013-04-22 16:29:00,
2013-04-22 12:34:00,74.7,68.8,30.01,NNE,31,2.0,11.0,82,0.00,,,0.01,Wunderground v.1.15,2013-04-22 16:34:00,
2013-04-22 12:39:00,74.7,68.5,30.01,NNW,329,1.0,4.0,81,0.00,,,0.01,Wunderground v.1.15,2013-04-22 16:39:00,
2013-04-22 12:45:00,76.0,69.4,30.00,North,359,5.0,12.0,80,0.00,,,0.01,Wunderground v.1.15,2013-04-22 16:45:00,
2013-04-22 12:50:00,76.1,68.0,30.00,NW,325,11.0,11.0,76,0.00,,,0.01,Wunderground v.1.15,2013-04-22 16:50:00,
2013-04-22 12:55:00,76.1,67.6,30.00,West,279,5.0,11.0,75,0.00,,,0.01,Wunderground v.1.15,2013-04-22 16:55:00,
2013-04-22 13:01:00,76.5,67.6,30.00,NNW,338,5.0,10.0,74,0.00,,,0.01,Wunderground v.1.15,2013-04-22 17:01:00,
2013-04-22 13:06:00,76.5,67.2,30.00,NE,37,0.0,10.0,73,0.00,,,0.01,Wunderground v.1.15,2013-04-22 17:06:00,
2013-04-22 13:11:00,76.1,67.2,30.00,North,359,0.0,6.0,74,0.00,,,0.01,Wunderground v.1.15,2013-04-22 17:11:00,
2013-04-22 13:16:00,76.8,68.3,30.00,NE,46,0.0,7.0,75,0.00,,,0.01,Wunderground v.1.15,2013-04-22 17:16:00,
2013-04-22 13:21:00,77.0,67.7,30.00,NNW,339,7.0,9.0,73,0.00,,,0.01,Wunderground v.1.15,2013-04-22 17:21:00,
2013-04-22 13:26:00,77.2,67.5,30.00,NNW,347,5.0,10.0,72,0.00,,,0.01,Wunderground v.1.15,2013-04-22 17:26:00,
2013-04-22 13:31:00,77.9,67.3,29.99,North,354,7.0,7.0,70,0.00,,,0.01,Wunderground v.1.15,2013-04-22 17:31:00,
2013-04-22 13:36:00,77.7,66.7,29.99,NNW,337,0.0,11.0,69,0.00,,,0.01,Wunderground v.1.15,2013-04-22 17:36:00,
2013-04-22 13:42:00,78.3,67.3,29.99,North,1,6.0,6.0,69,0.00,,,0.01,Wunderground v.1.15,2013-04-22 17:42:00,
2013-04-22 13:47:00,78.5,67.9,29.98,North,1,0.0,7.0,70,0.00,,,0.01,Wunderground v.1.15,2013-04-22 17:47:00,
2013-04-22 13:52:00,78.6,66.7,29.98,NNW,344,4.0,10.0,67,0.00,,,0.01,Wunderground v.1.15,2013-04-22 17:52:00,
2013-04-22 13:58:00,78.3,66.9,29.98,NNW,338,0.0,10.0,68,0.00,,,0.01,Wunderground v.1.15,2013-04-22 17:58:00,
2013-04-22 14:03:00,77.7,67.5,29.98,North,1,0.0,7.0,71,0.00,,,0.01,Wunderground v.1.15,2013-04-22 18:03:00,
2013-04-22 14:08:00,77.4,67.3,29.98,ENE,68,3.0,12.0,71,0.00,,,0.01,Wunderground v.1.15,2013-04-22 18:08:00,
2013-04-22 14:13:00,77.0,66.5,29.98,North,0,5.0,10.0,70,0.00,,,0.01,Wunderground v.1.15,2013-04-22 18:13:00,
2013-04-22 14:19:00,76.5,66.8,29.98,North,354,1.0,10.0,72,0.00,,,0.01,Wunderground v.1.15,2013-04-22 18:19:00,
2013-04-22 14:24:00,76.3,67.8,29.98,NNE,23,1.0,4.0,75,0.00,,,0.01,Wunderground v.1.15,2013-04-22 18:24:00,
2013-04-22 14:29:00,76.0,67.1,29.98,North,4,0.0,4.0,74,0.00,,,0.01,Wunderground v.1.15,2013-04-22 18:29:00,
2013-04-22 14:34:00,76.0,67.1,29.98,NE,34,1.0,4.0,74,0.00,,,0.01,Wunderground v.1.15,2013-04-22 18:34:00,
2013-04-22 14:40:00,76.0,67.1,29.98,North,7,2.0,2.0,74,0.00,,,0.01,Wunderground v.1.15,2013-04-22 18:40:00,
2013-04-22 14:44:00,76.0,67.1,29.97,North,351,0.0,7.0,74,0.00,,,0.01,Wunderground v.1.15,2013-04-22 18:44:00,
2013-04-22 14:50:00,76.3,68.2,29.97,NE,51,0.0,2.0,76,0.00,,,0.01,Wunderground v.1.15,2013-04-22 18:50:00,
2013-04-22 14:55:00,76.7,67.8,29.97,NE,53,0.0,7.0,74,0.00,,,0.01,Wunderground v.1.15,2013-04-22 18:55:00,
2013-04-22 15:00:00,77.0,67.7,29.97,NE,39,0.0,1.0,73,0.00,,,0.01,Wunderground v.1.15,2013-04-22 19:00:00,
2013-04-22 15:05:00,77.0,68.1,29.97,North,0,2.0,4.0,74,0.00,,,0.01,Wunderground v.1.15,2013-04-22 19:05:00,
2013-04-22 15:10:00,76.5,67.6,29.97,North,1,0.0,4.0,74,0.00,,,0.01,Wunderground v.1.15,2013-04-22 19:10:00,
2013-04-22 15:15:00,76.0,67.5,29.96,North,359,0.0,4.0,75,0.00,,,0.01,Wunderground v.1.15,2013-04-22 19:15:00,
2013-04-22 15:20:00,75.6,68.3,29.96,North,357,0.0,1.0,78,0.00,,,0.01,Wunderground v.1.15,2013-04-22 19:20:00,
2013-04-22 15:26:00,75.3,68.7,29.96,North,0,0.0,1.0,80,0.00,,,0.01,Wunderground v.1.15,2013-04-22 19:26:00,
2013-04-22 15:31:00,74.6,68.0,29.96,North,354,0.0,1.0,80,0.00,,,0.01,Wunderground v.1.15,2013-04-22 19:31:00,
2013-04-22 15:36:00,74.0,67.4,29.96,North,350,0.0,4.0,80,0.00,,,0.02,Wunderground v.1.15,2013-04-22 19:36:00,
2013-04-22 15:42:00,73.7,68.2,29.96,North,350,0.0,0.0,83,0.00,,,0.02,Wunderground v.1.15,2013-04-22 19:42:00,
2013-04-22 15:47:00,73.7,68.2,29.95,North,353,0.0,0.0,83,0.00,,,0.02,Wunderground v.1.15,2013-04-22 19:47:00,
2013-04-22 15:52:00,73.7,68.2,29.95,North,1,0.0,2.0,83,0.00,,,0.02,Wunderground v.1.15,2013-04-22 19:52:00,
2013-04-22 15:57:00,73.7,68.2,29.95,NNE,13,0.0,4.0,83,0.00,,,0.02,Wunderground v.1.15,2013-04-22 19:57:00,
2013-04-22 16:03:00,73.5,68.4,29.95,North,0,1.0,9.0,84,0.00,,,0.02,Wunderground v.1.15,2013-04-22 20:03:00,
2013-04-22 16:08:00,73.5,68.7,29.95,North,0,0.0,9.0,85,0.00,,,0.02,Wunderground v.1.15,2013-04-22 20:08:00,
2013-04-22 16:13:00,73.5,68.4,29.95,NNE,24,0.0,3.0,84,0.00,,,0.02,Wunderground v.1.15,2013-04-22 20:13:00,
2013-04-22 16:18:00,73.3,68.2,29.94,NE,35,1.0,3.0,84,0.00,,,0.02,Wunderground v.1.15,2013-04-22 20:18:00,
2013-04-22 16:23:00,73.3,67.8,29.94,NE,40,3.0,6.0,83,0.00,,,0.02,Wunderground v.1.15,2013-04-22 20:23:00,
2013-04-22 16:28:00,73.3,68.2,29.94,NE,44,0.0,6.0,84,0.00,,,0.02,Wunderground v.1.15,2013-04-22 20:28:00,
2013-04-22 16:33:00,73.5,68.4,29.93,North,1,0.0,4.0,84,0.00,,,0.02,Wunderground v.1.15,2013-04-22 20:33:00,
2013-04-22 16:38:00,73.7,68.2,29.93,NE,35,1.0,6.0,83,0.00,,,0.02,Wunderground v.1.15,2013-04-22 20:38:00,
2013-04-22 16:44:00,73.7,67.9,29.93,NE,37,3.0,6.0,82,0.00,,,0.02,Wunderground v.1.15,2013-04-22 20:44:00,
2013-04-22 16:49:00,73.7,67.9,29.93,North,359,1.0,6.0,82,0.00,,,0.02,Wunderground v.1.15,2013-04-22 20:49:00,
2013-04-22 16:54:00,73.7,67.9,29.93,NNW,331,1.0,7.0,82,0.00,,,0.02,Wunderground v.1.15,2013-04-22 20:54:00,
2013-04-22 16:59:00,74.0,68.2,29.93,NNW,335,5.0,7.0,82,0.00,,,0.02,Wunderground v.1.15,2013-04-22 20:59:00,
2013-04-22 17:05:00,73.9,68.1,29.93,North,359,1.0,3.0,82,0.00,,,0.02,Wunderground v.1.15,2013-04-22 21:05:00,
2013-04-22 17:10:00,74.2,68.0,29.93,North,3,0.0,3.0,81,0.00,,,0.02,Wunderground v.1.15,2013-04-22 21:10:00,
2013-04-22 17:15:00,74.0,67.4,29.93,North,10,0.0,12.0,80,0.00,,,0.02,Wunderground v.1.15,2013-04-22 21:15:00,
2013-04-22 17:20:00,74.2,67.3,29.93,NE,49,1.0,2.0,79,0.00,,,0.02,Wunderground v.1.15,2013-04-22 21:20:00,
2013-04-22 17:26:00,74.0,68.9,29.93,North,1,2.0,16.0,84,0.00,,,0.02,Wunderground v.1.15,2013-04-22 21:26:00,
2013-04-22 17:31:00,74.2,68.0,29.93,North,358,2.0,6.0,81,0.00,,,0.02,Wunderground v.1.15,2013-04-22 21:31:00,
2013-04-22 17:36:00,74.4,68.9,29.93,NE,50,0.0,14.0,83,0.00,,,0.02,Wunderground v.1.15,2013-04-22 21:36:00,
2013-04-22 17:42:00,74.4,68.5,29.93,NNE,30,10.0,10.0,82,0.00,,,0.02,Wunderground v.1.15,2013-04-22 21:42:00,
2013-04-22 17:47:00,74.4,68.2,29.93,NNE,18,0.0,16.0,81,0.00,,,0.02,Wunderground v.1.15,2013-04-22 21:47:00,
2013-04-22 17:52:00,74.9,68.3,29.93,NE,49,1.0,13.0,80,0.00,,,0.02,Wunderground v.1.15,2013-04-22 21:52:00,
2013-04-22 17:58:00,74.6,67.7,29.93,North,1,1.0,14.0,79,0.00,,,0.02,Wunderground v.1.15,2013-04-22 21:58:00,
2013-04-22 18:03:00,74.2,67.6,29.93,NNE,20,0.0,4.0,80,0.00,,,0.02,Wunderground v.1.15,2013-04-22 22:03:00,
2013-04-22 18:08:00,74.0,67.4,29.93,NNW,337,9.0,9.0,80,0.00,,,0.02,Wunderground v.1.15,2013-04-22 22:08:00,
2013-04-22 18:13:00,74.4,67.5,29.93,NNE,16,0.0,11.0,79,0.00,,,0.02,Wunderground v.1.15,2013-04-22 22:13:00,
2013-04-22 18:18:00,74.6,67.7,29.94,North,359,1.0,11.0,79,0.00,,,0.02,Wunderground v.1.15,2013-04-22 22:18:00,
2013-04-22 18:23:00,74.6,67.3,29.94,ENE,63,1.0,12.0,78,0.00,,,0.02,Wunderground v.1.15,2013-04-22 22:23:00,
2013-04-22 18:28:00,74.4,67.1,29.94,North,2,1.0,12.0,78,0.00,,,0.02,Wunderground v.1.15,2013-04-22 22:28:00,
2013-04-22 18:33:00,74.6,67.3,29.94,NE,43,0.0,7.0,78,0.00,,,0.02,Wunderground v.1.15,2013-04-22 22:33:00,
2013-04-22 18:38:00,74.6,67.3,29.94,NE,40,1.0,7.0,78,0.00,,,0.02,Wunderground v.1.15,2013-04-22 22:38:00,
2013-04-22 18:44:00,74.6,67.7,29.94,NNE,24,10.0,11.0,79,0.00,,,0.02,Wunderground v.1.15,2013-04-22 22:44:00,
2013-04-22 18:49:00,74.0,67.1,29.94,ENE,62,0.0,11.0,79,0.00,,,0.02,Wunderground v.1.15,2013-04-22 22:49:00,
2013-04-22 18:54:00,73.5,66.9,29.94,NE,53,3.0,4.0,80,0.00,,,0.02,Wunderground v.1.15,2013-04-22 22:54:00,
2013-04-22 18:59:00,73.2,66.3,29.94,NNE,15,0.0,1.0,79,0.00,,,0.02,Wunderground v.1.15,2013-04-22 22:59:00,
2013-04-22 19:04:00,72.8,65.9,29.94,NE,44,0.0,9.0,79,0.00,,,0.02,Wunderground v.1.15,2013-04-22 23:04:00,
2013-04-22 19:09:00,72.8,65.5,29.94,North,3,0.0,9.0,78,0.00,,,0.02,Wunderground v.1.15,2013-04-22 23:09:00,
2013-04-22 19:14:00,72.7,65.1,29.95,North,6,0.0,11.0,77,0.00,,,0.02,Wunderground v.1.15,2013-04-22 23:14:00,
2013-04-22 19:19:00,72.8,64.8,29.95,NE,38,0.0,11.0,76,0.00,,,0.02,Wunderground v.1.15,2013-04-22 23:19:00,
2013-04-22 19:25:00,72.8,64.8,29.95,NE,42,0.0,11.0,76,0.00,,,0.02,Wunderground v.1.15,2013-04-22 23:25:00,
2013-04-22 19:30:00,72.7,65.1,29.95,North,0,0.0,1.0,77,0.00,,,0.02,Wunderground v.1.15,2013-04-22 23:30:00,
2013-04-22 19:35:00,72.7,65.1,29.95,North,8,0.0,7.0,77,0.00,,,0.02,Wunderground v.1.15,2013-04-22 23:35:00,
2013-04-22 19:40:00,72.5,65.2,29.95,North,359,0.0,1.0,78,0.00,,,0.02,Wunderground v.1.15,2013-04-22 23:40:00,
2013-04-22 19:45:00,72.3,65.4,29.96,North,350,0.0,1.0,79,0.00,,,0.02,Wunderground v.1.15,2013-04-22 23:45:00,
2013-04-22 19:51:00,72.5,65.6,29.96,North,1,0.0,0.0,79,0.00,,,0.02,Wunderground v.1.15,2013-04-22 23:51:00,
2013-04-22 19:56:00,72.5,66.3,29.96,North,356,0.0,0.0,81,0.00,,,0.02,Wunderground v.1.15,2013-04-22 23:56:00,
2013-04-22 20:01:00,72.3,66.1,29.96,North,359,0.0,0.0,81,0.00,,,0.02,Wunderground v.1.15,2013-04-23 00:01:00,
2013-04-22 20:06:00,72.5,66.3,29.96,NNW,347,5.0,7.0,81,0.00,,,0.02,Wunderground v.1.15,2013-04-23 00:06:00,
2013-04-22 20:11:00,72.5,66.3,29.96,NE,34,0.0,1.0,81,0.00,,,0.02,Wunderground v.1.15,2013-04-23 00:11:00,
2013-04-22 20:16:00,72.3,66.1,29.97,North,4,0.0,8.0,81,0.00,,,0.02,Wunderground v.1.15,2013-04-23 00:16:00,
2013-04-22 20:21:00,72.3,66.1,29.97,North,359,0.0,1.0,81,0.00,,,0.02,Wunderground v.1.15,2013-04-23 00:21:00,
2013-04-22 20:26:00,72.3,66.1,29.97,North,352,0.0,12.0,81,0.00,,,0.02,Wunderground v.1.15,2013-04-23 00:26:00,
2013-04-22 20:31:00,72.1,65.9,29.98,North,359,0.0,5.0,81,0.00,,,0.02,Wunderground v.1.15,2013-04-23 00:31:00,
2013-04-22 20:36:00,72.1,65.6,29.98,North,9,0.0,5.0,80,0.00,,,0.02,Wunderground v.1.15,2013-04-23 00:36:00,
2013-04-22 20:41:00,72.0,65.5,29.98,NW,324,0.0,1.0,80,0.00,,,0.02,Wunderground v.1.15,2013-04-23 00:41:00,
2013-04-22 20:46:00,72.0,65.5,29.98,North,1,0.0,1.0,80,0.00,,,0.02,Wunderground v.1.15,2013-04-23 00:46:00,
2013-04-22 20:52:00,71.8,65.3,29.98,North,355,0.0,0.0,80,0.00,,,0.02,Wunderground v.1.15,2013-04-23 00:52:00,
2013-04-22 20:57:00,72.0,65.8,29.98,North,1,0.0,1.0,81,0.00,,,0.02,Wunderground v.1.15,2013-04-23 00:57:00,
2013-04-22 21:02:00,72.0,65.8,29.98,North,359,0.0,0.0,81,0.00,,,0.02,Wunderground v.1.15,2013-04-23 01:02:00,
2013-04-22 21:07:00,72.0,66.2,29.98,NNE,30,0.0,1.0,82,0.00,,,0.02,Wunderground v.1.15,2013-04-23 01:07:00,
2013-04-22 21:13:00,72.0,66.2,29.98,North,8,0.0,1.0,82,0.00,,,0.02,Wunderground v.1.15,2013-04-23 01:13:00,
2013-04-22 21:18:00,72.0,66.2,29.98,North,6,0.0,1.0,82,0.00,,,0.02,Wunderground v.1.15,2013-04-23 01:18:00,
2013-04-22 21:23:00,71.8,66.4,29.98,North,0,3.0,3.0,83,0.00,,,0.02,Wunderground v.1.15,2013-04-23 01:23:00,
2013-04-22 21:28:00,71.8,66.4,29.98,North,0,0.0,5.0,83,0.00,,,0.02,Wunderground v.1.15,2013-04-23 01:28:00,
2013-04-22 21:33:00,71.6,66.2,29.98,North,4,0.0,1.0,83,0.00,,,0.02,Wunderground v.1.15,2013-04-23 01:33:00,
2013-04-22 21:39:00,71.5,66.4,29.98,North,1,0.0,11.0,84,0.00,,,0.02,Wunderground v.1.15,2013-04-23 01:39:00,
2013-04-22 21:44:00,71.5,66.8,29.99,North,6,0.0,9.0,85,0.00,,,0.02,Wunderground v.1.15,2013-04-23 01:44:00,
2013-04-22 21:49:00,71.3,66.6,29.99,North,8,0.0,9.0,85,0.00,,,0.02,Wunderground v.1.15,2013-04-23 01:49:00,
2013-04-22 21:54:00,71.1,66.4,29.99,NNW,331,3.0,8.0,85,0.00,,,0.02,Wunderground v.1.15,2013-04-23 01:54:00,
2013-04-22 22:00:00,71.1,66.7,30.00,North,0,10.0,10.0,86,0.00,,,0.02,Wunderground v.1.15,2013-04-23 02:00:00,
2013-04-22 22:05:00,71.1,66.7,30.00,NNE,23,1.0,14.0,86,0.00,,,0.02,Wunderground v.1.15,2013-04-23 02:05:00,
2013-04-22 22:10:00,71.1,66.7,30.00,NNW,347,11.0,11.0,86,0.00,,,0.02,Wunderground v.1.15,2013-04-23 02:10:00,
2013-04-22 22:15:00,71.1,66.7,30.00,NE,36,0.0,12.0,86,0.00,,,0.02,Wunderground v.1.15,2013-04-23 02:15:00,
2013-04-22 22:21:00,71.1,67.0,30.00,NNE,19,3.0,11.0,87,0.00,,,0.02,Wunderground v.1.15,2013-04-23 02:21:00,
2013-04-22 22:26:00,70.9,66.8,30.00,North,359,5.0,11.0,87,0.00,,,0.02,Wunderground v.1.15,2013-04-23 02:26:00,
2013-04-22 22:31:00,70.9,66.8,30.00,NE,41,0.0,5.0,87,0.00,,,0.02,Wunderground v.1.15,2013-04-23 02:31:00,
2013-04-22 22:36:00,70.8,67.1,30.00,North,0,0.0,6.0,88,0.00,,,0.02,Wunderground v.1.15,2013-04-23 02:36:00,
2013-04-22 22:42:00,70.6,66.9,30.00,North,349,1.0,11.0,88,0.00,,,0.02,Wunderground v.1.15,2013-04-23 02:42:00,
2013-04-22 22:47:00,70.4,66.7,30.00,NNW,342,0.0,11.0,88,0.00,,,0.02,Wunderground v.1.15,2013-04-23 02:47:00,
2013-04-22 22:52:00,70.4,67.0,30.00,NNW,347,4.0,6.0,89,0.00,,,0.02,Wunderground v.1.15,2013-04-23 02:52:00,
2013-04-22 22:58:00,70.4,67.0,30.00,North,355,0.0,10.0,89,0.00,,,0.02,Wunderground v.1.15,2013-04-23 02:58:00,
2013-04-22 23:03:00,70.4,67.0,30.00,North,1,3.0,3.0,89,0.00,,,0.02,Wunderground v.1.15,2013-04-23 03:03:00,
2013-04-22 23:08:00,70.4,67.3,30.00,North,7,0.0,7.0,90,0.00,,,0.02,Wunderground v.1.15,2013-04-23 03:08:00,
2013-04-22 23:13:00,70.3,67.2,30.00,North,352,0.0,1.0,90,0.00,,,0.02,Wunderground v.1.15,2013-04-23 03:13:00,
2013-04-22 23:18:00,70.1,67.0,30.00,North,359,0.0,1.0,90,0.00,,,0.02,Wunderground v.1.15,2013-04-23 03:18:00,
2013-04-22 23:23:00,70.3,67.2,30.00,North,8,0.0,4.0,90,0.00,,,0.02,Wunderground v.1.15,2013-04-23 03:23:00,
2013-04-22 23:28:00,69.9,66.8,30.00,North,359,0.0,4.0,90,0.00,,,0.02,Wunderground v.1.15,2013-04-23 03:28:00,
2013-04-22 23:33:00,69.9,66.8,30.00,North,349,0.0,1.0,90,0.00,,,0.02,Wunderground v.1.15,2013-04-23 03:33:00,
2013-04-22 23:39:00,69.9,66.8,30.00,North,349,0.0,1.0,90,0.00,,,0.02,Wunderground v.1.15,2013-04-23 03:39:00,
2013-04-22 23:44:00,69.8,66.7,30.00,North,349,0.0,0.0,90,0.00,,,0.02,Wunderground v.1.15,2013-04-23 03:44:00,
2013-04-22 23:49:00,69.6,66.5,30.00,North,349,0.0,0.0,90,0.00,,,0.02,Wunderground v.1.15,2013-04-23 03:49:00,
2013-04-22 23:54:00,69.4,66.7,30.00,North,351,0.0,0.0,91,0.00,,,0.02,Wunderground v.1.15,2013-04-23 03:54:00,
2013-04-22 23:59:00,69.3,66.6,29.99,North,351,0.0,0.0,91,0.00,,,0.02,Wunderground v.1.15,2013-04-23 03:59:00,